sat.trackr.live / text

‹ back to catalog

STARLINK-32459

NORAD 61715 · 2024-196J

PAYLOAD ACTIVE UNKNOWN

§ Identity

Operator
Country
US
Launch date
2024-10-30
Launch site
AFETR
Launch vehicle
Mass (kg)
RCS (m²)

Purposes: comms

External: N2YO · Heavens-Above · Gunter

§ Orbital elements

Epoch: 2026-05-25T03:27:06.543072Z

Period
94.11 min
Inclination
53.1617°
Eccentricity
0.0001315
Mean motion
15.30188824 rev/d
Perigee alt
474.3 km
Apogee alt
476.1 km
Semi-major
6,853.4 km
B*
1.0901e-5
RAAN
106.1029°
Arg perigee
89.4038°
Mean anomaly
270.7114°
Rev number
8,886

§ Raw data

STARLINK-324591 61715U 24196J   26145.14382573 -.00000036  00000+0  10901-4 0  99972 61715  53.1617 106.1029 0001315  89.4038 270.7114 15.30188824 88868

JSON: /api/v1/satellites/61715 · /tle

For live sub-satellite position, see the globe view (requires WebGL).

§ Visibility from observer

Set your observer location to see the next 7 days of passes ≥ 10°. The values pass through the URL so the page stays shareable.

No JS? Fill the form by hand. The geolocation button needs JavaScript.